Weather History for Glasgow, MT

Change the Weather History Date:

Sunday, June 10, 2012

  Actual Average Record
Temperature  
Mean Temperature 51 °F 62 °F  
Max Temperature 59 °F 75 °F 105 °F (1918)
Min Temperature 43 °F 50 °F 33 °F (1914)
Degree Days  
Heating Degree Days 14 4  
Month to date heating degree days 38 53  
Since 1 June heating degree days 38 53  
Since 1 July heating degree days 7126 8384  
Cooling Degree Days 0 2  
Month to date cooling degree days 16 16  
Year to date cooling degree days 26 33  
Since 1 June cooling degree days 16 16  
Growing Degree Days 2 (Base 50)    
Moisture  
Dew Point 46 °F    
Average Humidity 74    
Maximum Humidity 96    
Minimum Humidity 51    
Precipitation  
Precipitation 0.13 in 0.08 in 1.31 in (2004)
Month to date precipitation 1.10 0.85  
Year to date precipitation 6.81 4.67  
Snow  
Snow 0.00 in 0.00 in T in (1952)
Month to date snowfall 0.0 0.0  
Since 1 June snowfall 0.0 0.0  
Since 1 July snowfall 25.7 34.8  
Snow Depth 0.00 in    
Sea Level Pressure  
Sea Level Pressure 29.64 in    
Wind  
Wind Speed 16 mph (West)    
Max Wind Speed 30 mph    
Max Gust Speed 40 mph    
Visibility 9 miles    
Events Rain    
T = Trace of Precipitation, MM = Missing Value Source: NWS Daily Summary

Daily Weather History Graph

Daily Weather History Graph

Search for Another Location

Airport:

Trip Planner

Search our weather history database for the weather conditions in past years. The results will help you decide how hot, cold, wet, or windy it might be!

Date:

Astronomy

Jun. 10, 2012 Rise Set
Actual Time 5:06 AM MDT 9:06 PM MDT
Civil Twilight 4:24 AM MDT 9:47 PM MDT
Nautical Twilight 3:27 AM MDT 10:45 PM MDT
Astronomical Twilight 1:51 AM MDT 12:22 AM MDT
Moon 12:34 AM MDT (6/10) 12:25 PM MDT (6/10)
Length of Visible Light 17h 22m
Length of Day
16h 00m
Waning Gibbous, 57% of the Moon is Illuminated
Jun 10
Waning Gibbous
Jun 11
Last Quarter
Jun 19
New
Jun 26
First Quarter
Jul 3
Full

Hourly Weather History & Observations

Time (MDT) Temp. Windchill Dew Point Humidity Pressure Visibility Wind Dir Wind Speed Gust Speed Precip Events Conditions
12:53 AM 52.0 °F - 46.9 °F 83% 29.62 in 10.0 mi SSW 9.2 mph - N/A   Clear
1:53 AM 50.0 °F - 42.1 °F 74% 29.62 in 10.0 mi West 10.4 mph - N/A   Clear
2:53 AM 46.9 °F - 39.9 °F 77% 29.65 in 10.0 mi West 6.9 mph - N/A   Clear
3:53 AM 46.0 °F 41.9 °F 39.0 °F 76% 29.68 in 10.0 mi WNW 8.1 mph - N/A   Mostly Cloudy
4:53 AM 44.1 °F 40.1 °F 37.0 °F 76% 29.69 in 10.0 mi West 6.9 mph - N/A   Scattered Clouds
5:53 AM 45.0 °F 41.2 °F 37.0 °F 74% 29.69 in 10.0 mi WSW 6.9 mph - N/A   Clear
6:53 AM 48.0 °F - 37.9 °F 68% 29.67 in 10.0 mi SW 4.6 mph - N/A   Clear
7:53 AM 53.1 °F - 39.0 °F 59% 29.64 in 10.0 mi WSW 10.4 mph - N/A   Clear
8:53 AM 55.9 °F - 37.9 °F 51% 29.62 in 10.0 mi West 19.6 mph 24.2 mph N/A   Clear
9:53 AM 57.9 °F - 39.9 °F 51% 29.61 in 10.0 mi WSW 20.7 mph 26.5 mph N/A   Scattered Clouds
10:53 AM 54.0 °F - 41.0 °F 62% 29.62 in 10.0 mi West 20.7 mph 26.5 mph N/A   Overcast
11:53 AM 53.6 °F - 41.0 °F 62% 29.61 in 10.0 mi SW 26.5 mph 32.2 mph N/A   Overcast
12:53 PM 55.0 °F - 44.1 °F 67% 29.60 in 10.0 mi SW 15.0 mph 26.5 mph 0.00 in   Mostly Cloudy
1:53 PM 55.0 °F - 42.1 °F 62% 29.58 in 10.0 mi SW 24.2 mph 33.4 mph N/A   Overcast
2:53 PM 53.1 °F - 43.0 °F 69% 29.57 in 10.0 mi WSW 20.7 mph 27.6 mph N/A   Overcast
3:53 PM 52.0 °F - 48.0 °F 86% 29.56 in 10.0 mi WSW 13.8 mph - 0.00 in Rain Light Rain
4:04 PM 51.8 °F - 48.2 °F 88% 29.54 in 7.0 mi WSW 12.7 mph 20.7 mph 0.00 in Rain Light Rain
4:16 PM 51.8 °F - 48.2 °F 88% 29.54 in 8.0 mi WSW 17.3 mph 21.9 mph 0.01 in Rain Light Rain
4:46 PM 51.8 °F - 50.0 °F 94% 29.53 in 6.0 mi WSW 12.7 mph - 0.03 in Rain Light Rain
4:53 PM 52.0 °F - 50.0 °F 93% 29.56 in 7.0 mi WSW 11.5 mph - 0.03 in Rain Light Rain
5:15 PM 51.8 °F - 50.0 °F 94% 29.53 in 2.5 mi West 10.4 mph - 0.03 in Rain Rain
5:20 PM 51.8 °F - 50.0 °F 94% 29.53 in 3.0 mi West 11.5 mph - 0.04 in Rain Light Rain
5:27 PM 53.6 °F - 51.8 °F 94% 29.53 in 6.0 mi West 10.4 mph - 0.04 in Rain Light Rain
5:38 PM 53.6 °F - 51.8 °F 94% 29.53 in 7.0 mi WNW 10.4 mph - 0.05 in Rain Light Rain
5:53 PM 54.0 °F - 51.1 °F 90% 29.55 in 10.0 mi West 13.8 mph - 0.06 in Rain Light Rain
6:09 PM 53.6 °F - 51.8 °F 94% 29.54 in 10.0 mi West 15.0 mph - 0.00 in   Overcast
6:30 PM 53.6 °F - 51.8 °F 94% 29.55 in 10.0 mi WNW 12.7 mph - 0.00 in   Overcast
6:53 PM 54.0 °F - 51.1 °F 90% 29.59 in 10.0 mi NW 16.1 mph - 0.00 in   Mostly Cloudy
7:53 PM 55.0 °F - 50.0 °F 83% 29.62 in 10.0 mi WNW 16.1 mph - N/A   Overcast
8:46 PM 55.4 °F - 51.8 °F 88% 29.65 in 10.0 mi NW 20.7 mph 29.9 mph N/A   Overcast
8:53 PM 55.9 °F - 50.0 °F 80% 29.66 in 10.0 mi NW 23.0 mph 29.9 mph N/A   Overcast
9:53 PM 54.0 °F - 48.9 °F 83% 29.72 in 10.0 mi WNW 20.7 mph 27.6 mph N/A   Overcast
10:16 PM 53.6 °F - 50.0 °F 88% 29.73 in 10.0 mi NW 20.7 mph 29.9 mph N/A   Mostly Cloudy
10:53 PM 53.1 °F - 48.0 °F 83% 29.78 in 10.0 mi NW 25.3 mph 35.7 mph N/A   Mostly Cloudy
11:00 PM 53.6 °F - 46.4 °F 77% 29.77 in 10.0 mi NW 20.7 mph 29.9 mph N/A   Mostly Cloudy
11:09 PM 51.8 °F - 48.2 °F 88% 29.77 in 10.0 mi NW 15.0 mph - N/A   Scattered Clouds
11:32 PM 51.8 °F - 48.2 °F 88% 29.79 in 10.0 mi WNW 15.0 mph - N/A   Mostly Cloudy
11:45 PM 51.8 °F - 48.2 °F 88% 29.79 in 10.0 mi WNW 18.4 mph 23.0 mph N/A   Mostly Cloudy
11:53 PM 52.0 °F - 48.0 °F 86% 29.81 in 10.0 mi NW 19.6 mph - N/A   Mostly Cloudy